Tiempo atmosférico en la estación meteorológica de Vallehermoso, Alto Igualero, Santa Cruz de Tenerife (1475 m.)



Fecha
DESCASC
Temp. máxima en grados centígrados (hora)
DESCASC
Temp. mínima en grados centígrados (hora)
DESCASC
Temp. media en grados centígrados
DESCASC
Racha de viento máxima en m/sg (hora)
DESCASC
Velocidad máxima media en intervalos de 10 minutos(hora)
DESCASC
Precipitaciones diarias en mm
DESCASC
Precipitaciones de 00:00 a 06:00 en mm
DESCASC
Precipitaciones de 06:00 a 12:00 en mm
DESCASC
Precipitaciones de 12:00 a 18:00 en mm
DESCASC
Precipitaciones de 18:00 a 24:00 en mm
DESCASC
13-06-2019 13.7 (17:30) 6.8 (04:10) 10.3 15.28 (08:30) 11.94 (08:40) 0.2 0 0.2 0 0
12-06-2019 12.3 (11:50) 7.9 (23:59) 10.1 18.06 (03:40) 14.17 (05:30) 1.6 0.6 0.6 0.2 0.2
11-06-2019 12 (17:00) 7 (04:40) 9.5 21.39 (09:10) 16.11 (09:00) 0.4 0 0.2 0 0.2
10-06-2019 11.8 (14:20) 7.5 (23:59) 9.7 21.39 (23:50) 15.83 (23:59) 0 0 0 0 0
09-06-2019 13.1 (16:00) 6.6 (00:00) 9.9 18.33 (19:20) 14.17 (20:50) 0.4 0.2 0.2 0 0
08-06-2019 10.6 (12:50) 7.6 (00:00) 9.1 15.56 (21:00) 11.94 (20:30) 0.8 0.4 0.2 0 0.2
07-06-2019 12.1 (16:10) 6.1 (00:00) 9.1 15.56 (07:40) 12.78 (07:40) 0.2 0.2 0 0 0
06-06-2019 8.8 (05:30) 6.5 (00:00) 7.7 17.5 (20:30) 13.33 (19:50) 0.4 0.2 0.2 0 0
05-06-2019 13.2 (00:00) 8.6 (00:00) 10.9 18.33 (23:10) 13.33 (22:10) 0.2 0 0 0 0.2
04-06-2019 24.5 (15:40) 12.8 (00:00) 18.7 15.56 (00:30) 12.22 (00:10) 0 0 0 0 0
03-06-2019 23.7 (13:20) 17.1 (00:00) 20.4 15.83 (02:00) 12.5 (01:30) 0 0 0 0 0
02-06-2019 29.3 (17:10) 16.9 (00:00) 23.1 14.44 (23:50) 11.39 (23:50) 0 0 0 0 0
01-06-2019 26.6 (14:20) 18.3 (00:00) 22.4 10 (09:10) 9.17 (02:20) 0 0 0 0 0
31-05-2019 26.8 (14:40) 16.9 (00:00) 21.8 8.89 (01:00) 8.06 (23:40) 0 0 0 0 0
30-05-2019 25.5 (17:40) 15.2 (00:00) 20.3 10 (00:40) 8.89 (00:20) 0 0 0 0 0
29-05-2019 23.1 (17:00) 14.4 (00:00) 18.8 11.11 (02:00) 10.28 (01:50) 0 0 0 0 0
28-05-2019 22.1 (14:40) 13.2 (00:00) 17.7 16.67 (10:30) 11.94 (07:50) 0 0 0 0 0
27-05-2019 21.9 (13:20) 11.2 (00:00) 16.5 15 (02:50) 12.5 (22:20) 0 0 0 0 0
26-05-2019 19.4 (19:50) 10.3 (00:00) 14.8 17.78 (09:10) 16.67 (04:50) 0 0 0 0 0
25-05-2019 17.4 (13:00) 13.3 (00:00) 15.3 16.39 (22:40) 12.78 (22:30) 0 0 0 0 0
24-05-2019 19.8 (12:00) 11.8 (00:00) 15.8 17.78 (02:30) 14.72 (05:30) 0 0 0 0 0
23-05-2019 13.9 (22:10) 8 (00:00) 10.9 20 (04:50) 15.83 (04:30) 0.6 0.4 0.2 0 0
22-05-2019 11.5 (17:30) 7.7 (00:00) 9.6 18.61 (21:20) 14.44 (22:10) 0.4 0.2 0.2 0 0
21-05-2019 15.2 (17:00) 6.5 (01:30) 10.8 16.67 (23:30) 13.89 (03:20) 0 0 0 0 0
20-05-2019 11.1 (15:40) 6.7 (07:30) 8.9 16.67 (08:40) 13.89 (08:50) 0.4 0.2 0.2 0 0
19-05-2019 17.5 (12:10) 7 (00:00) 12.3 15.83 (21:10) 13.33 (23:30) 0 0 0 0 0
18-05-2019 19.8 (16:40) 7.4 (00:00) 13.6 16.11 (20:10) 13.61 (20:00) 0 0 0 0 0
17-05-2019 19.3 (13:50) 12.9 (00:00) 16.1 15.83 (13:10) 11.94 (13:00) 0 0 0 0 0

Gráficas

Temp. máximas Temp. mínimas Temp. medias Precipitaciones Rachas de viento máximas Velocidades máximas media en intervalos de 10 minutos

Datos horarios

Fecha y hora oficial Temperatura (ºC) Velocidad del viento (km/h) Dirección del viento Racha (km/h) Dirección de racha Precipitación (mm) Presión (hPa) Tendencia (hPa) Humedad (%)
2019-06-15 23:00:00 8.2 14 Norte 25 Norte 0 -- -- 94
2019-06-15 22:00:00 8.1 17 Nordeste 21 Nordeste 0 -- -- 100
2019-06-15 21:00:00 11.1 5 Noroeste 14 Sudoeste 0 -- -- 86
2019-06-15 20:00:00 13.7 13 Oeste 32 Oeste 0 -- -- 74
2019-06-15 19:00:00 14.6 15 Oeste 29 Oeste 0 -- -- 70
2019-06-15 18:00:00 15.4 15 Oeste 26 Oeste 0 -- -- 69
2019-06-15 17:00:00 15.6 13 Oeste 21 Sudoeste 0 -- -- 72
2019-06-15 16:00:00 15.1 4 Este 15 Este 0 -- -- 79
2019-06-15 15:00:00 15.4 4 Nordeste 17 Nordeste 0 -- -- 80
2019-06-15 14:00:00 14 4 Este 14 Nordeste 0 -- -- 84
2019-06-15 13:00:00 14.4 5 Nordeste 12 Nordeste 0 -- -- 82
2019-06-15 12:00:00 13.5 4 Oeste 12 Sudeste 0 -- -- 86
2019-06-15 11:00:00 11.6 3 Norte 9 Nordeste 0 -- -- 91
2019-06-15 10:00:00 -- 4 Noroeste 11 Oeste 0 -- -- --
2019-06-15 09:00:00 9.3 4 Sudoeste 9 Sudoeste 0 -- -- 72
2019-06-15 08:00:00 9.6 5 Nordeste 11 Oeste 0 -- -- 53
2019-06-15 07:00:00 7.2 5 Sur 15 Oeste 0 -- -- 92
2019-06-15 06:00:00 7.2 4 Este 21 Este 0 -- -- 86
2019-06-15 05:00:00 6.5 16 Este 19 Este 0 -- -- 99
2019-06-15 04:00:00 6.5 3 Este 17 Nordeste 0 -- -- 96
2019-06-15 03:00:00 6.6 11 Nordeste 26 Nordeste 0 -- -- 100
2019-06-15 02:00:00 6.4 22 Nordeste 29 Nordeste 0 -- -- 100
2019-06-15 01:00:00 6.7 8 Nordeste 32 Nordeste 0 -- -- 100
2019-06-15 00:00:00 6.4 14 Nordeste 30 Nordeste 0 -- -- 100
2019-06-14 23:00:00 7 23 Nordeste 38 Nordeste 0 -- -- 100
2019-06-14 22:00:00 7.1 19 Nordeste 27 Nordeste 0 -- -- 100
2019-06-14 21:00:00 8.6 5 Norte 15 Noroeste 0 -- -- 100
2019-06-14 20:00:00 9.1 7 Norte 15 Nordeste 0 -- -- 98
2019-06-14 19:00:00 10.3 6 Nordeste 12 Nordeste 0 -- -- 95
2019-06-14 18:00:00 10.7 9 Noroeste 16 Noroeste 0 -- -- 93
2019-06-14 17:00:00 10.7 6 Noroeste 17 Norte 0 -- -- 94
2019-06-14 16:00:00 10.9 6 Norte 16 Norte 0 -- -- 92
2019-06-14 15:00:00 11 7 Este 15 Este 0 -- -- 91
2019-06-14 14:00:00 12 4 Norte 22 Sudeste 0 -- -- 88
2019-06-14 13:00:00 11.5 11 Nordeste 21 Este 0 -- -- 89
2019-06-14 12:00:00 10.4 10 Este 18 Este 0 -- -- 93
2019-06-14 11:00:00 10.5 12 Este 22 Este 0 -- -- 99
2019-06-14 10:00:00 8.5 17 Este 24 Este 0 -- -- 100
2019-06-14 09:00:00 7.3 13 Nordeste 29 Nordeste 0 -- -- 100
2019-06-14 08:00:00 7.4 16 Nordeste 28 Este 0 -- -- 100
2019-06-14 07:00:00 7.1 15 Norte 24 Norte 0 -- -- 100
2019-06-14 06:00:00 7.1 11 Nordeste 18 Nordeste 0 -- -- 100
2019-06-14 05:00:00 6.5 13 Nordeste 26 Nordeste 0 -- -- 100
2019-06-14 04:00:00 6.5 18 Nordeste 24 Nordeste 0 -- -- 100
2019-06-14 03:00:00 6.2 13 Norte 24 Nordeste 0 -- -- 100
2019-06-14 02:00:00 6.2 18 Este 43 Nordeste 0 -- -- 100
2019-06-14 01:00:00 6.8 32 Nordeste 42 Este 0 -- -- 100
2019-06-14 00:00:00 6.8 28 Nordeste 48 Nordeste 0 -- -- 100
2019-06-13 23:00:00 8 32 Nordeste 41 Nordeste 0 -- -- 100
2019-06-13 22:00:00 7.5 12 Nordeste 30 Nordeste 0 -- -- 100
2019-06-13 21:00:00 7.8 12 Este 21 Nordeste 0 -- -- 97
2019-06-13 20:00:00 10.3 6 Nordeste 18 Este 0 -- -- 90
2019-06-13 19:00:00 11 10 Norte 28 Noroeste 0 -- -- 90
2019-06-13 18:00:00 11.5 13 Norte 27 Noroeste 0 -- -- 88
2019-06-13 17:00:00 13 15 Noroeste 28 Norte 0 -- -- 78
2019-06-13 16:00:00 11.7 16 Norte 32 Noroeste 0 -- -- 100
2019-06-13 15:00:00 11.1 14 Norte 25 Norte 0 -- -- 100
2019-06-13 14:00:00 10.7 15 Este 44 Nordeste 0 -- -- 100
2019-06-13 13:00:00 9 32 Nordeste 55 Nordeste 0 -- -- 100
2019-06-13 12:00:00 8 23 Nordeste 52 Este 0 -- -- 100
2019-06-13 11:00:00 7.8 22 Nordeste 48 Nordeste 0 -- -- 100
2019-06-13 10:00:00 7.5 34 Nordeste 52 Nordeste 0 -- -- 100
2019-06-13 09:00:00 6.8 39 Nordeste 55 Nordeste 0 -- -- 100
2019-06-13 08:00:00 8 39 Nordeste 53 Nordeste 0.2 -- -- 100
2019-06-13 07:00:00 7.7 32 Nordeste 50 Nordeste 0 -- -- 100
2019-06-13 06:00:00 8.2 34 Nordeste 54 Nordeste 0 -- -- 100
2019-06-13 05:00:00 7.2 31 Nordeste 48 Nordeste 0 -- -- 100
2019-06-13 04:00:00 6.9 34 Nordeste 47 Nordeste 0 -- -- 100
2019-06-13 03:00:00 7.5 33 Nordeste 45 Nordeste 0 -- -- 100
2019-06-13 02:00:00 7.3 38 Nordeste 49 Nordeste 0 -- -- 100
2019-06-13 01:00:00 7.9 36 Nordeste 52 Nordeste 0 -- -- 100
2019-06-13 00:00:00 7.9 39 Nordeste 54 Nordeste 0.2 -- -- 100
2019-06-12 23:00:00 8.6 42 Nordeste 57 Nordeste 0 -- -- 100
2019-06-12 22:00:00 8.8 42 Nordeste 58 Nordeste 0 -- -- 100
2019-06-12 21:00:00 8.8 39 Nordeste 50 Nordeste 0 -- -- 100
2019-06-12 20:00:00 9.3 32 Nordeste 47 Norte 0 -- -- 100
2019-06-12 19:00:00 9.6 28 Norte 47 Nordeste 0 -- -- 100
2019-06-12 18:00:00 9.5 35 Norte 45 Norte 0 -- -- 100
2019-06-12 17:00:00 10.6 29 Norte 43 Norte 0 -- -- 100
2019-06-12 16:00:00 11.1 19 Nordeste 33 Nordeste 0 -- -- 100
2019-06-12 15:00:00 11.7 15 Nordeste 29 Nordeste 0 -- -- 100
2019-06-12 14:00:00 12 10 Nordeste 46 Nordeste 0 -- -- 100
2019-06-12 13:00:00 11.2 34 Nordeste 48 Nordeste 0.2 -- -- 100
2019-06-12 12:00:00 12.1 18 Nordeste 46 Nordeste 0 -- -- 100
2019-06-12 11:00:00 11.3 35 Nordeste 51 Nordeste 0 -- -- 100
2019-06-12 10:00:00 10.8 39 Nordeste 54 Nordeste 0 -- -- 100
2019-06-12 09:00:00 10.4 38 Nordeste 55 Nordeste 0 -- -- 100
2019-06-12 08:00:00 10.4 39 Nordeste 54 Nordeste 0.2 -- -- 100
2019-06-12 07:00:00 10.5 39 Nordeste 58 Nordeste 0.4 -- -- 100
2019-06-12 06:00:00 10 48 Nordeste 65 Nordeste 0 -- -- 100
2019-06-12 05:00:00 9.6 44 Nordeste 59 Nordeste 0.2 -- -- 100
2019-06-12 04:00:00 10 48 Nordeste 65 Nordeste 0.2 -- -- 100
2019-06-12 03:00:00 9.9 49 Nordeste 63 Nordeste 0 -- -- 100
2019-06-12 02:00:00 9.8 43 Nordeste 61 Nordeste 0.2 -- -- 100
2019-06-12 01:00:00 9.7 43 Nordeste 64 Nordeste 0 -- -- 100
2019-06-12 00:00:00 9.6 48 Nordeste 66 Nordeste 0 -- -- 100
2019-06-11 23:00:00 9.8 46 Nordeste 69 Nordeste 0 -- -- 100
2019-06-11 22:00:00 9.9 49 Nordeste 64 Nordeste 0 -- -- 100
2019-06-11 21:00:00 10.1 51 Nordeste 68 Nordeste 0.2 -- -- 100
2019-06-11 20:00:00 10.7 45 Nordeste 68 Nordeste 0 -- -- 100
2019-06-11 19:00:00 10.8 44 Nordeste 65 Nordeste 0 -- -- 100
2019-06-11 18:00:00 11.7 45 Nordeste 65 Nordeste 0 -- -- 100
2019-06-11 17:00:00 12 42 Nordeste 65 Nordeste 0 -- -- 100
2019-06-11 16:00:00 11.7 42 Nordeste 67 Nordeste 0 -- -- 100
2019-06-11 15:00:00 11.8 44 Nordeste 68 Nordeste 0 -- -- 100
2019-06-11 14:00:00 11.6 42 Nordeste 67 Nordeste 0 -- -- 100
2019-06-11 13:00:00 11.5 45 Nordeste 67 Nordeste 0 -- -- 100
2019-06-11 12:00:00 11.1 50 Nordeste 75 Nordeste 0 -- -- 100
2019-06-11 11:00:00 10.4 51 Nordeste 72 Nordeste 0 -- -- 100
2019-06-11 10:00:00 9.3 51 Nordeste 77 Nordeste 0 -- -- 100
2019-06-11 09:00:00 9 58 Nordeste 75 Nordeste 0.2 -- -- 100
2019-06-11 08:00:00 8 55 Nordeste 72 Nordeste 0 -- -- 100
2019-06-11 07:00:00 7.6 56 Nordeste 73 Nordeste 0 -- -- 100
2019-06-11 06:00:00 7.8 53 Nordeste 73 Nordeste 0 -- -- 100
2019-06-11 05:00:00 -- 54 Nordeste 75 Nordeste 0 -- -- --
2019-06-11 04:00:00 7.5 51 Nordeste 71 Nordeste 0 -- -- 100
2019-06-11 03:00:00 7.7 50 Nordeste 69 Nordeste 0 -- -- 100
2019-06-11 02:00:00 7.9 52 Nordeste 69 Nordeste 0 -- -- 98
2019-06-11 01:00:00 8.1 53 Nordeste 72 Nordeste 0 -- -- 92
2019-06-11 00:00:00 7.5 57 Nordeste 77 Nordeste 0 -- -- 100
2019-06-10 23:00:00 8.6 49 Nordeste 67 Nordeste 0 -- -- 100
2019-06-10 22:00:00 8 49 Nordeste 63 Nordeste 0 -- -- 100
2019-06-10 21:00:00 9.1 49 Nordeste 66 Nordeste 0 -- -- 100
2019-06-10 20:00:00 8.9 47 Nordeste 58 Nordeste 0 -- -- 100
2019-06-10 19:00:00 9.3 44 Nordeste 55 Nordeste 0 -- -- 100
2019-06-10 18:00:00 9.6 41 Nordeste 55 Nordeste 0 -- -- 100
2019-06-10 17:00:00 10.4 42 Nordeste 54 Nordeste 0 -- -- 100
2019-06-10 16:00:00 11.2 37 Nordeste 50 Nordeste 0 -- -- 93
2019-06-10 15:00:00 11.4 36 Nordeste 49 Nordeste 0 -- -- 92
2019-06-10 14:00:00 11.5 39 Nordeste 55 Este 0 -- -- 89
2019-06-10 13:00:00 10.4 38 Nordeste 47 Nordeste 0 -- -- 97
2019-06-10 12:00:00 10.4 34 Nordeste 45 Nordeste 0 -- -- 94
2019-06-10 11:00:00 11.3 35 Nordeste 45 Nordeste 0 -- -- 81
2019-06-10 10:00:00 10.6 35 Nordeste 48 Nordeste 0 -- -- 79
2019-06-10 09:00:00 8.4 34 Nordeste 44 Nordeste 0 -- -- 100
2019-06-10 08:00:00 8.8 36 Nordeste 43 Nordeste 0 -- -- 93
2019-06-10 07:00:00 9.1 37 Nordeste 45 Nordeste 0 -- -- 81
2019-06-10 06:00:00 9.2 39 Nordeste 48 Nordeste 0 -- -- 79
2019-06-10 05:00:00 9.7 41 Nordeste 51 Nordeste 0 -- -- 81
2019-06-10 04:00:00 9.7 41 Nordeste 50 Nordeste 0 -- -- 74
2019-06-10 03:00:00 10 44 Nordeste 55 Nordeste 0 -- -- 75
2019-06-10 02:00:00 11 45 Nordeste 58 Nordeste 0 -- -- 62
2019-06-10 01:00:00 10.3 47 Nordeste 61 Nordeste 0 -- -- 69
2019-06-10 00:00:00 10.5 49 Nordeste 59 Nordeste 0 -- -- 72
2019-06-09 23:00:00 11 48 Nordeste 59 Nordeste 0 -- -- 65
2019-06-09 22:00:00 10.5 49 Nordeste 62 Nordeste 0 -- -- 68
2019-06-09 21:00:00 10 49 Nordeste 63 Nordeste 0 -- -- 74
2019-06-09 20:00:00 11.2 44 Nordeste 66 Nordeste 0 -- -- 68
2019-06-09 19:00:00 12.5 44 Nordeste 57 Nordeste 0 -- -- 58
2019-06-09 18:00:00 11.5 43 Nordeste 56 Nordeste 0 -- -- 71
2019-06-09 17:00:00 11.5 39 Nordeste 55 Nordeste 0 -- -- 81
2019-06-09 16:00:00 13.1 36 Nordeste 51 Nordeste 0 -- -- 78
2019-06-09 15:00:00 11.2 38 Nordeste 50 Nordeste 0 -- -- 100
2019-06-09 14:00:00 11.2 32 Nordeste 48 Nordeste 0 -- -- 100
2019-06-09 13:00:00 9.3 38 Nordeste 51 Nordeste 0 -- -- 100
2019-06-09 12:00:00 8.6 43 Nordeste 52 Nordeste 0 -- -- 100
2019-06-09 11:00:00 8.3 40 Nordeste 59 Nordeste 0 -- -- 100
2019-06-09 10:00:00 6.8 46 Nordeste 57 Nordeste 0 -- -- 100
2019-06-09 09:00:00 7.6 46 Nordeste 60 Nordeste 0 -- -- 100
2019-06-09 08:00:00 7.7 48 Nordeste 62 Nordeste 0 -- -- 100
2019-06-09 07:00:00 7.2 45 Nordeste 54 Nordeste 0.2 -- -- 100
2019-06-09 06:00:00 6.6 44 Nordeste 53 Nordeste 0 -- -- 100
2019-06-09 05:00:00 7.2 35 Nordeste 45 Nordeste 0 -- -- 100
2019-06-09 04:00:00 7.2 37 Nordeste 44 Nordeste 0 -- -- 100
2019-06-09 03:00:00 7.8 40 Nordeste 47 Nordeste 0.2 -- -- 100
2019-06-09 02:00:00 7.6 38 Nordeste 46 Nordeste 0 -- -- 100
2019-06-09 01:00:00 7.5 41 Nordeste 50 Nordeste 0 -- -- 100
2019-06-09 00:00:00 7.9 38 Nordeste 45 Nordeste 0 -- -- 100
2019-06-08 23:00:00 7.7 35 Nordeste 48 Nordeste 0 -- -- 100
2019-06-08 22:00:00 7.9 37 Nordeste 49 Nordeste 0 -- -- 100
2019-06-08 21:00:00 8.3 42 Nordeste 56 Nordeste 0 -- -- 100
2019-06-08 20:00:00 8 42 Nordeste 54 Nordeste 0.2 -- -- 100
2019-06-08 19:00:00 8.4 41 Nordeste 50 Nordeste 0 -- -- 100
2019-06-08 18:00:00 8.8 36 Nordeste 48 Nordeste 0 -- -- 100
2019-06-08 17:00:00 9.5 22 Nordeste 35 Nordeste 0 -- -- 100
2019-06-08 16:00:00 9.7 26 Norte 32 Norte 0 -- -- 100
2019-06-08 15:00:00 10.2 22 Nordeste 40 Nordeste 0 -- -- 100
2019-06-08 14:00:00 10.2 24 Nordeste 39 Nordeste 0 -- -- 100
2019-06-08 13:00:00 10.5 25 Nordeste 40 Nordeste 0 -- -- 100
2019-06-08 12:00:00 9.9 19 Nordeste 38 Nordeste 0 -- -- 100
2019-06-08 11:00:00 10 26 Nordeste 42 Nordeste 0 -- -- 100
2019-06-08 10:00:00 10.1 32 Nordeste 44 Nordeste 0 -- -- 100
2019-06-08 09:00:00 9.7 30 Nordeste 41 Nordeste 0 -- -- 100
2019-06-08 08:00:00 10 29 Nordeste 40 Nordeste 0.2 -- -- 100
2019-06-08 07:00:00 10 32 Nordeste 42 Nordeste 0 -- -- 100
2019-06-08 06:00:00 10.5 29 Nordeste 41 Nordeste 0.4 -- -- 100
2019-06-08 05:00:00 10 27 Nordeste 41 Nordeste 0 -- -- 100
2019-06-08 04:00:00 9.7 29 Nordeste 40 Nordeste 0 -- -- 100
2019-06-08 03:00:00 10.2 30 Nordeste 39 Nordeste 0 -- -- 100
2019-06-08 02:00:00 9.6 31 Nordeste 41 Nordeste 0 -- -- 100
2019-06-08 01:00:00 9.4 35 Nordeste 42 Nordeste 0 -- -- 100
2019-06-08 00:00:00 9.8 34 Nordeste 44 Nordeste 0 -- -- 100
2019-06-07 23:00:00 10.2 35 Nordeste 43 Nordeste 0 -- -- 100
2019-06-07 22:00:00 9.4 35 Nordeste 46 Nordeste 0 -- -- 100
2019-06-07 21:00:00 9.4 37 Nordeste 47 Nordeste 0 -- -- 100
2019-06-07 20:00:00 9.7 37 Nordeste 49 Nordeste 0 -- -- 100
2019-06-07 19:00:00 10.3 40 Nordeste 53 Nordeste 0 -- -- 100
2019-06-07 18:00:00 10.7 44 Nordeste 55 Nordeste 0 -- -- 100
2019-06-07 17:00:00 11.1 28 Nordeste 40 Nordeste 0 -- -- 100
2019-06-07 16:00:00 11.8 22 Nordeste 37 Nordeste 0 -- -- 100
2019-06-07 15:00:00 11.7 24 Nordeste 35 Nordeste 0 -- -- 100
2019-06-07 14:00:00 11.2 22 Este 44 Nordeste 0 -- -- 100
2019-06-07 13:00:00 9.5 31 Nordeste 44 Nordeste 0 -- -- 100
2019-06-07 12:00:00 9.1 33 Nordeste 51 Nordeste 0 -- -- 100
2019-06-07 11:00:00 8.7 42 Nordeste 52 Nordeste 0 -- -- 100
2019-06-07 10:00:00 9 42 Nordeste 54 Nordeste 0 -- -- 100
2019-06-07 09:00:00 8 41 Nordeste 56 Nordeste 0 -- -- 100
2019-06-07 08:00:00 7.3 42 Nordeste 56 Nordeste 0 -- -- 100
2019-06-07 07:00:00 6.4 42 Nordeste 52 Nordeste 0 -- -- 100
2019-06-07 06:00:00 7.2 39 Nordeste 55 Nordeste 0.2 -- -- 100
2019-06-07 05:00:00 7.8 40 Nordeste 53 Nordeste 0 -- -- 100
2019-06-07 04:00:00 7.6 42 Nordeste 54 Nordeste 0 -- -- 100
2019-06-07 03:00:00 6.8 42 Nordeste 54 Nordeste 0 -- -- 100
2019-06-07 02:00:00 8 39 Nordeste 53 Nordeste 0 -- -- 100
2019-06-07 01:00:00 6.6 41 Nordeste 55 Nordeste 0 -- -- 100
2019-06-07 00:00:00 6.7 39 Nordeste 53 Nordeste 0 -- -- 100
2019-06-06 23:00:00 6.7 44 Nordeste 54 Nordeste 0 -- -- 100
2019-06-06 22:00:00 6.9 40 Nordeste 55 Nordeste 0 -- -- 100
2019-06-06 21:00:00 7.1 41 Nordeste 63 Nordeste 0 -- -- 100
2019-06-06 20:00:00 7.1 48 Nordeste 62 Nordeste 0 -- -- 100
2019-06-06 19:00:00 7.9 40 Nordeste 60 Nordeste 0 -- -- 100
2019-06-06 18:00:00 8.4 34 Nordeste 59 Nordeste 0 -- -- 100
2019-06-06 17:00:00 8.5 39 Nordeste 58 Nordeste 0 -- -- 100
2019-06-06 16:00:00 8.3 38 Nordeste 57 Nordeste 0 -- -- 100
2019-06-06 15:00:00 8.6 36 Nordeste 51 Nordeste 0 -- -- 100
2019-06-06 14:00:00 8.4 35 Nordeste 48 Nordeste 0 -- -- 100
2019-06-06 13:00:00 8.5 38 Nordeste 59 Nordeste 0 -- -- 100
2019-06-06 12:00:00 7.6 33 Nordeste 50 Nordeste 0 -- -- 100
2019-06-06 11:00:00 7.7 35 Nordeste 50 Nordeste 0 -- -- 100
2019-06-06 10:00:00 7.5 39 Nordeste 52 Nordeste 0 -- -- 100
2019-06-06 09:00:00 7.2 42 Nordeste 57 Nordeste 0.2 -- -- 100
2019-06-06 08:00:00 6.6 46 Nordeste 59 Nordeste 0 -- -- 100
2019-06-06 07:00:00 7.5 46 Nordeste 58 Nordeste 0 -- -- 100
2019-06-06 06:00:00 7.7 41 Nordeste 56 Nordeste 0.2 -- -- 100
2019-06-06 05:00:00 8.1 41 Nordeste 52 Nordeste 0 -- -- 100
2019-06-06 04:00:00 8.2 36 Nordeste 53 Nordeste 0 -- -- 100
2019-06-06 03:00:00 7.8 39 Nordeste 50 Nordeste 0 -- -- 100
2019-06-06 02:00:00 8.2 37 Nordeste 60 Nordeste 0 -- -- 100
2019-06-06 01:00:00 8.1 46 Nordeste 60 Nordeste 0 -- -- 100
2019-06-06 00:00:00 8.6 42 Nordeste 66 Nordeste 0.2 -- -- 100
2019-06-05 23:00:00 9.3 44 Nordeste 61 Nordeste 0 -- -- 100
2019-06-05 22:00:00 9 42 Nordeste 59 Nordeste 0 -- -- 100
2019-06-05 21:00:00 8.8 39 Nordeste 53 Nordeste 0 -- -- 100
2019-06-05 20:00:00 8.7 38 Nordeste 53 Nordeste 0 -- -- 100
2019-06-05 19:00:00 9.4 40 Nordeste 51 Nordeste 0 -- -- 100
2019-06-05 18:00:00 10.4 26 Nordeste 44 Nordeste 0 -- -- 100
2019-06-05 17:00:00 10.9 21 Nordeste 41 Nordeste 0 -- -- 100
2019-06-05 16:00:00 11.9 18 Nordeste 41 Nordeste 0 -- -- 100
2019-06-05 15:00:00 11.2 23 Nordeste 37 Nordeste 0 -- -- 100
2019-06-05 14:00:00 10.9 25 Nordeste 44 Nordeste 0 -- -- 100
2019-06-05 13:00:00 10.5 32 Nordeste 48 Nordeste 0 -- -- 100
2019-06-05 12:00:00 11 32 Nordeste 48 Nordeste 0 -- -- 100
2019-06-05 11:00:00 11 32 Nordeste 44 Nordeste 0 -- -- 100
2019-06-05 10:00:00 10.9 33 Nordeste 46 Nordeste 0 -- -- 100
2019-06-05 09:00:00 10.5 34 Nordeste 47 Nordeste 0 -- -- 100
2019-06-05 08:00:00 10.1 38 Nordeste 48 Nordeste 0 -- -- 100
2019-06-05 07:00:00 10 35 Nordeste 50 Nordeste 0 -- -- 100
2019-06-05 06:00:00 9.4 37 Nordeste 47 Nordeste 0 -- -- 100
2019-06-05 05:00:00 9.8 33 Nordeste 44 Nordeste 0 -- -- 100
2019-06-05 04:00:00 10.2 34 Nordeste 47 Nordeste 0 -- -- 100
2019-06-05 03:00:00 10 35 Nordeste 50 Nordeste 0 -- -- 100
2019-06-05 02:00:00 11.1 40 Nordeste 47 Norte 0 -- -- 93
2019-06-05 01:00:00 12.7 36 Nordeste 45 Nordeste 0 -- -- 75
2019-06-05 00:00:00 13.2 33 Nordeste 44 Norte 0 -- -- 70
2019-06-04 23:00:00 12.8 34 Norte 45 Norte 0 -- -- 71
2019-06-04 22:00:00 13.9 38 Norte 45 Norte 0 -- -- 36
2019-06-04 21:00:00 14.5 33 Norte 38 Norte 0 -- -- 36
2019-06-04 20:00:00 17.3 24 Norte 31 Noroeste 0 -- -- 29
2019-06-04 19:00:00 18.4 21 Norte 28 Norte 0 -- -- 25
2019-06-04 18:00:00 19.9 14 Norte 20 Norte 0 -- -- 27
2019-06-04 17:00:00 22.7 8 Norte 29 Norte 0 -- -- 25
2019-06-04 16:00:00 23.7 17 Noroeste 30 Noroeste 0 -- -- 26
2019-06-04 15:00:00 23 10 Norte 21 Norte 0 -- -- 26
2019-06-04 14:00:00 22.3 15 Norte 29 Norte 0 -- -- 24
2019-06-04 13:00:00 22 22 Norte 30 Norte 0 -- -- 23
2019-06-04 12:00:00 22.1 20 Norte 32 Norte 0 -- -- 22
2019-06-04 11:00:00 20.8 26 Norte 37 Norte 0 -- -- 23
2019-06-04 10:00:00 20.4 26 Norte 36 Norte 0 -- -- 17
2019-06-04 09:00:00 19.6 28 Norte 41 Nordeste 0 -- -- 17
2019-06-04 08:00:00 19.1 33 Norte 40 Norte 0 -- -- 17
2019-06-04 07:00:00 18.5 34 Norte 41 Nordeste 0 -- -- 19
2019-06-04 06:00:00 18.1 36 Nordeste 46 Nordeste 0 -- -- 21
2019-06-04 05:00:00 17.7 34 Nordeste 47 Nordeste 0 -- -- 23
2019-06-04 04:00:00 17.3 36 Nordeste 49 Nordeste 0 -- -- 24
2019-06-04 03:00:00 17.6 36 Nordeste 53 Nordeste 0 -- -- 23
2019-06-04 02:00:00 17.6 39 Nordeste 54 Nordeste 0 -- -- 21
2019-06-04 01:00:00 17.1 44 Nordeste 56 Nordeste 0 -- -- 27
2019-06-04 00:00:00 17.2 44 Nordeste 57 Nordeste 0 -- -- 30
2019-06-03 23:00:00 17.3 42 Nordeste 54 Nordeste 0 -- -- 28
2019-06-03 22:00:00 17.4 42 Nordeste 56 Nordeste 0 -- -- 26
2019-06-03 21:00:00 17.6 44 Nordeste 57 Nordeste 0 -- -- 25
2019-06-03 20:00:00 18.2 43 Nordeste 55 Nordeste 0 -- -- 24
2019-06-03 19:00:00 19 39 Nordeste 54 Nordeste 0 -- -- 23
2019-06-03 18:00:00 20.4 33 Nordeste 53 Nordeste 0 -- -- 20
2019-06-03 17:00:00 21.4 30 Nordeste 51 Este 0 -- -- 21
2019-06-03 16:00:00 22.1 30 Nordeste 45 Nordeste 0 -- -- 18
2019-06-03 15:00:00 22.6 29 Nordeste 44 Nordeste 0 -- -- 19
2019-06-03 14:00:00 23.1 25 Nordeste 39 Nordeste 0 -- -- 17
2019-06-03 13:00:00 23.6 24 Nordeste 42 Este 0 -- -- 18
2019-06-03 12:00:00 22.6 30 Nordeste 47 Nordeste 0 -- -- 20
2019-06-03 11:00:00 22.8 28 Nordeste 49 Nordeste 0 -- -- 16
2019-06-03 10:00:00 21.5 32 Nordeste 45 Nordeste 0 -- -- 23
2019-06-03 09:00:00 21.9 35 Este 51 Este 0 -- -- 18
2019-06-03 08:00:00 21.5 33 Este 54 Este 0 -- -- 18
2019-06-03 07:00:00 21.1 37 Este 50 Nordeste 0 -- -- 20
2019-06-03 06:00:00 21.1 33 Este 44 Este 0 -- -- 25
2019-06-03 05:00:00 20.7 36 Nordeste 48 Nordeste 0 -- -- 23
2019-06-03 04:00:00 20.3 39 Nordeste 48 Nordeste 0 -- -- 20
2019-06-03 03:00:00 20.4 32 Este 53 Nordeste 0 -- -- 23
2019-06-03 02:00:00 20.3 42 Este 57 Nordeste 0 -- -- 24
2019-06-03 01:00:00 20.2 40 Nordeste 49 Nordeste 0 -- -- 24
2019-06-03 00:00:00 20.7 37 Este 52 Este 0 -- -- 31
2019-06-02 23:00:00 20.6 37 Nordeste 50 Nordeste 0 -- -- 31
2019-06-02 22:00:00 21 37 Nordeste 43 Nordeste 0 -- -- 36
2019-06-02 21:00:00 20.1 30 Nordeste 40 Nordeste 0 -- -- 35
2019-06-02 20:00:00 20.7 23 Nordeste 26 Nordeste 0 -- -- 31
2019-06-02 19:00:00 22.5 16 Nordeste 23 Norte 0 -- -- 36
2019-06-02 18:00:00 27.9 14 Noroeste 28 Oeste 0 -- -- 29
2019-06-02 17:00:00 28.6 11 Oeste 22 Sudoeste 0 -- -- 27
2019-06-02 16:00:00 28.2 4 Sudoeste 19 Sudeste 0 -- -- 28
2019-06-02 15:00:00 27 12 Sudeste 27 Sudeste 0 -- -- 26
2019-06-02 14:00:00 26.5 17 Este 33 Este 0 -- -- 29
2019-06-02 13:00:00 25.8 25 Este 34 Este 0 -- -- 28
2019-06-02 12:00:00 25.1 27 Este 37 Este 0 -- -- 27
2019-06-02 11:00:00 24.4 23 Este 38 Este 0 -- -- 26
2019-06-02 10:00:00 22.8 30 Este 45 Este 0 -- -- 27
2019-06-02 09:00:00 21.3 27 Este 48 Este 0 -- -- 31
2019-06-02 08:00:00 19.3 30 Este 46 Este 0 -- -- 35
2019-06-02 07:00:00 17.8 30 Este 48 Este 0 -- -- 35
2019-06-02 06:00:00 17.6 27 Este 48 Este 0 -- -- 38
2019-06-02 05:00:00 18.7 32 Este 44 Este 0 -- -- 33
2019-06-02 04:00:00 19.5 26 Este 39 Este 0 -- -- 26
2019-06-02 03:00:00 17.9 28 Este 36 Este 0 -- -- 38
2019-06-02 02:00:00 18.8 28 Este 36 Este 0 -- -- 36
2019-06-02 01:00:00 19.8 28 Este 33 Sudeste 0 -- -- 35
2019-06-02 00:00:00 20.2 25 Este 28 Este 0 -- -- 36
2019-06-01 23:00:00 20.5 16 Este 18 Este 0 -- -- 36
2019-06-01 22:00:00 20.9 16 Nordeste 21 Nordeste 0 -- -- 34
2019-06-01 21:00:00 19.9 19 Nordeste 26 Nordeste 0 -- -- 40
2019-06-01 20:00:00 20.4 21 Nordeste 27 Nordeste 0 -- -- 40
2019-06-01 19:00:00 20.7 22 Nordeste 30 Nordeste 0 -- -- 38
2019-06-01 18:00:00 21.6 19 Nordeste 28 Nordeste 0 -- -- 31
2019-06-01 17:00:00 22.7 17 Nordeste 26 Nordeste 0 -- -- 35
2019-06-01 16:00:00 23.6 14 Nordeste 23 Nordeste 0 -- -- 38
2019-06-01 15:00:00 24.6 14 Nordeste 21 Este 0 -- -- 35
2019-06-01 14:00:00 26.5 3 Este 22 Este 0 -- -- 35
2019-06-01 13:00:00 25.8 14 Sudeste 31 Este 0 -- -- 26
2019-06-01 12:00:00 25 21 Sudeste 34 Sudeste 0 -- -- 28
2019-06-01 11:00:00 24.4 24 Sudeste 35 Este 0 -- -- 28
2019-06-01 10:00:00 24.1 20 Este 36 Este 0 -- -- 26
2019-06-01 09:00:00 23.7 22 Este 32 Este 0 -- -- 25
2019-06-01 08:00:00 22.4 21 Este 32 Este 0 -- -- 25
2019-06-01 07:00:00 21.1 23 Este 30 Este 0 -- -- 28
2019-06-01 06:00:00 20.8 26 Este 32 Nordeste 0 -- -- 24
2019-06-01 05:00:00 19.3 27 Nordeste 36 Nordeste 0 -- -- 21
2019-06-01 04:00:00 18.3 32 Nordeste 34 Nordeste 0 -- -- 19
2019-06-01 03:00:00 19.2 33 Nordeste 35 Nordeste 0 -- -- 16
2019-06-01 02:00:00 19.5 32 Nordeste 34 Nordeste 0 -- -- 14
2019-06-01 01:00:00 19.8 33 Nordeste 35 Nordeste 0 -- -- 15
2019-06-01 00:00:00 19.5 29 Nordeste 32 Nordeste 0 -- -- 16
2019-05-31 23:00:00 19.3 23 Nordeste 28 Nordeste 0 -- -- 16
2019-05-31 22:00:00 19 23 Nordeste 27 Nordeste 0 -- -- 18
2019-05-31 21:00:00 18.9 21 Nordeste 24 Nordeste 0 -- -- 20
2019-05-31 20:00:00 20 15 Nordeste 20 Nordeste 0 -- -- 22
2019-05-31 19:00:00 22.8 8 Este 19 Este 0 -- -- 29
2019-05-31 18:00:00 24.9 5 Este 18 Oeste 0 -- -- 27
2019-05-31 17:00:00 26.3 5 Noroeste 13 Noroeste 0 -- -- 32
2019-05-31 16:00:00 26.5 6 Noroeste 18 Este 0 -- -- 29
2019-05-31 15:00:00 26.8 6 Este 17 Este 0 -- -- 25
2019-05-31 14:00:00 25.4 7 Este 23 Este 0 -- -- 21
2019-05-31 13:00:00 24.7 18 Este 24 Sudeste 0 -- -- 19
2019-05-31 12:00:00 24.6 11 Este 21 Este 0 -- -- 21
2019-05-31 11:00:00 23.1 11 Este 21 Sudeste 0 -- -- 20
2019-05-31 10:00:00 22.2 10 Este 21 Este 0 -- -- 23
2019-05-31 09:00:00 20.7 17 Este 23 Este 0 -- -- 21
2019-05-31 08:00:00 19.4 19 Este 24 Este 0 -- -- 20
2019-05-31 07:00:00 17.9 17 Este 20 Este 0 -- -- 21
2019-05-31 06:00:00 18.2 16 Este 28 Sudeste 0 -- -- 21
2019-05-31 05:00:00 18.1 21 Sudeste 24 Sudeste 0 -- -- 20
2019-05-31 04:00:00 17.9 17 Sudeste 24 Este 0 -- -- 20
2019-05-31 03:00:00 17.3 21 Este 25 Este 0 -- -- 24
2019-05-31 02:00:00 17.3 21 Este 31 Nordeste 0 -- -- 24
2019-05-31 01:00:00 17.1 28 Nordeste 32 Nordeste 0 -- -- 19
2019-05-31 00:00:00 17.1 24 Nordeste 26 Nordeste 0 -- -- 20
2019-05-30 23:00:00 17.4 21 Nordeste 23 Nordeste 0 -- -- 20
2019-05-30 22:00:00 17.8 16 Nordeste 17 Nordeste 0 -- -- 23
2019-05-30 21:00:00 18.1 15 Nordeste 16 Nordeste 0 -- -- 25
2019-05-30 20:00:00 20.4 4 Este 11 Sur 0 -- -- 30
2019-05-30 19:00:00 23.3 2 Este 14 Sudoeste 0 -- -- 40
2019-05-30 18:00:00 25 5 Oeste 14 Oeste 0 -- -- 42
2019-05-30 17:00:00 25 4 Noroeste 21 Sudoeste 0 -- -- 39
2019-05-30 16:00:00 25.4 6 Oeste 14 Norte 0 -- -- 35
2019-05-30 15:00:00 24.8 4 Sudoeste 18 Sudoeste 0 -- -- 32
2019-05-30 14:00:00 23.7 6 Este 23 Este 0 -- -- 24
2019-05-30 13:00:00 23.1 11 Este 22 Este 0 -- -- 22
2019-05-30 12:00:00 23.4 9 Sudeste 21 Sudeste 0 -- -- 23
2019-05-30 11:00:00 22.5 11 Este 22 Este 0 -- -- 26
2019-05-30 10:00:00 21.2 14 Este 24 Este 0 -- -- 27
2019-05-30 09:00:00 19.9 17 Este 31 Este 0 -- -- 27
2019-05-30 08:00:00 17.9 17 Sudeste 25 Sudeste 0 -- -- 28
2019-05-30 07:00:00 16.5 15 Sudeste 22 Sudeste 0 -- -- 28
2019-05-30 06:00:00 16.9 11 Sudeste 20 Sudeste 0 -- -- 27
2019-05-30 05:00:00 16.8 5 Norte 12 Norte 0 -- -- 22
2019-05-30 04:00:00 17.7 9 Sudeste 16 Este 0 -- -- 17
2019-05-30 03:00:00 15.5 15 Este 27 Este 0 -- -- 25
2019-05-30 02:00:00 15.3 23 Este 31 Este 0 -- -- 27
2019-05-30 01:00:00 15.5 29 Este 36 Este 0 -- -- 24
2019-05-30 00:00:00 15.8 31 Nordeste 34 Nordeste 0 -- -- 23
2019-05-29 23:00:00 16 30 Nordeste 32 Nordeste 0 -- -- 18
2019-05-29 22:00:00 16.1 27 Nordeste 30 Nordeste 0 -- -- 23
2019-05-29 21:00:00 16.4 26 Nordeste 29 Nordeste 0 -- -- 25
2019-05-29 20:00:00 17.3 24 Nordeste 27 Nordeste 0 -- -- 28
2019-05-29 19:00:00 18.7 16 Nordeste 20 Nordeste 0 -- -- 30
2019-05-29 18:00:00 20.7 10 Nordeste 18 Nordeste 0 -- -- 30
2019-05-29 17:00:00 23.1 9 Noroeste 28 Oeste 0 -- -- 34
2019-05-29 16:00:00 21.5 13 Este 24 Este 0 -- -- 32
2019-05-29 15:00:00 21.6 12 Este 28 Nordeste 0 -- -- 33
2019-05-29 14:00:00 21.4 18 Este 27 Nordeste 0 -- -- 30
2019-05-29 13:00:00 22.3 10 Nordeste 30 Este 0 -- -- 31
2019-05-29 12:00:00 22.3 6 Nordeste 22 Nordeste 0 -- -- 30
2019-05-29 11:00:00 21.1 9 Este 19 Este 0 -- -- 28
2019-05-29 10:00:00 18.8 16 Nordeste 27 Nordeste 0 -- -- 30
2019-05-29 09:00:00 16.9 21 Nordeste 32 Este 0 -- -- 30
2019-05-29 08:00:00 15.7 26 Nordeste 31 Nordeste 0 -- -- 31
2019-05-29 07:00:00 14.8 25 Nordeste 27 Nordeste 0 -- -- 31
2019-05-29 06:00:00 14.4 20 Nordeste 27 Nordeste 0 -- -- 33
2019-05-29 05:00:00 14.7 20 Nordeste 28 Nordeste 0 -- -- 30
2019-05-29 04:00:00 15.5 26 Nordeste 31 Nordeste 0 -- -- 27
2019-05-29 03:00:00 14.9 29 Nordeste 40 Nordeste 0 -- -- 27
2019-05-29 02:00:00 15.1 37 Nordeste 40 Nordeste 0 -- -- 26
2019-05-29 01:00:00 15.8 35 Nordeste 37 Nordeste 0 -- -- 26
2019-05-29 00:00:00 15.7 31 Nordeste 38 Nordeste 0 -- -- 25
2019-05-28 23:00:00 15.3 31 Nordeste 39 Nordeste 0 -- -- 27
2019-05-28 22:00:00 15.4 26 Nordeste 31 Nordeste 0 -- -- 25
2019-05-28 21:00:00 15.6 26 Nordeste 31 Nordeste 0 -- -- 26
2019-05-28 20:00:00 16.8 20 Norte 26 Norte 0 -- -- 32
2019-05-28 19:00:00 18.2 12 Nordeste 24 Nordeste 0 -- -- 36
2019-05-28 18:00:00 19.5 11 Nordeste 23 Este 0 -- -- 37
2019-05-28 17:00:00 20.2 15 Este 31 Este 0 -- -- 38
2019-05-28 16:00:00 20.3 19 Este 31 Este 0 -- -- 39
2019-05-28 15:00:00 21.9 10 Nordeste 23 Este 0 -- -- 36
2019-05-28 14:00:00 21 12 Nordeste 23 Este 0 -- -- 35
2019-05-28 13:00:00 20.1 12 Norte 25 Este 0 -- -- 38
2019-05-28 12:00:00 19.2 17 Este 48 Este 0 -- -- 42
2019-05-28 11:00:00 17.1 36 Este 60 Este 0 -- -- 47
2019-05-28 10:00:00 15.9 38 Nordeste 52 Este 0 -- -- 52
2019-05-28 09:00:00 15.6 37 Nordeste 50 Nordeste 0 -- -- 49
2019-05-28 08:00:00 14.6 42 Nordeste 54 Nordeste 0 -- -- 49
2019-05-28 07:00:00 14 39 Nordeste 49 Nordeste 0 -- -- 52
2019-05-28 06:00:00 14.7 35 Nordeste 46 Nordeste 0 -- -- 48
2019-05-28 05:00:00 14.5 31 Nordeste 41 Nordeste 0 -- -- 50
2019-05-28 04:00:00 14 32 Nordeste 47 Nordeste 0 -- -- 52
2019-05-28 03:00:00 13.6 41 Nordeste 53 Nordeste 0 -- -- 58
2019-05-28 02:00:00 13.8 35 Nordeste 47 Nordeste 0 -- -- 54
2019-05-28 01:00:00 13.7 36 Nordeste 47 Nordeste 0 -- -- 53
2019-05-28 00:00:00 13.5 36 Nordeste 48 Nordeste 0 -- -- 54
2019-05-27 23:00:00 12.4 41 Nordeste 54 Nordeste 0 -- -- 53
2019-05-27 22:00:00 12.6 40 Nordeste 50 Nordeste 0 -- -- 51
2019-05-27 21:00:00 13.5 37 Nordeste 50 Nordeste 0 -- -- 52
2019-05-27 20:00:00 13.7 37 Nordeste 52 Nordeste 0 -- -- 48
2019-05-27 19:00:00 14.2 37 Nordeste 49 Nordeste 0 -- -- 47
2019-05-27 18:00:00 15 32 Nordeste 42 Este 0 -- -- 49
2019-05-27 17:00:00 17.4 17 Nordeste 27 Nordeste 0 -- -- 50
2019-05-27 16:00:00 18 17 Nordeste 27 Nordeste 0 -- -- 49
2019-05-27 15:00:00 19.7 12 Nordeste 29 Nordeste 0 -- -- 45
2019-05-27 14:00:00 21 8 Este 22 Este 0 -- -- 37
2019-05-27 13:00:00 20.7 9 Sudoeste 21 Oeste 0 -- -- 35
2019-05-27 12:00:00 19.5 6 Sudeste 30 Este 0 -- -- 50
2019-05-27 11:00:00 16.3 16 Este 46 Nordeste 0 -- -- 49
2019-05-27 10:00:00 14.5 32 Nordeste 44 Nordeste 0 -- -- 52
2019-05-27 09:00:00 14 19 Norte 25 Nordeste 0 -- -- 52
2019-05-27 08:00:00 13.8 14 Oeste 15 Oeste 0 -- -- 45
2019-05-27 07:00:00 13.2 4 Sudoeste 21 Nordeste 0 -- -- 46
2019-05-27 06:00:00 13.1 19 Nordeste 39 Nordeste 0 -- -- 50
2019-05-27 05:00:00 11.9 35 Nordeste 44 Nordeste 0 -- -- 59
2019-05-27 04:00:00 11.4 35 Nordeste 50 Nordeste 0 -- -- 62
2019-05-27 03:00:00 11.2 38 Nordeste 54 Nordeste 0 -- -- 66
2019-05-27 02:00:00 11.5 36 Nordeste 50 Nordeste 0 -- -- 61
2019-05-27 01:00:00 12.3 35 Nordeste 41 Nordeste 0 -- -- 57
2019-05-27 00:00:00 13.2 21 Nordeste 26 Nordeste 0 -- -- 52
2019-05-26 23:00:00 14.4 12 Sur 16 Sur 0 -- -- 38
2019-05-26 22:00:00 15.1 8 Sur 11 Sur 0 -- -- 43
2019-05-26 21:00:00 18.3 0 Calma 5 Este 0 -- -- 43
2019-05-26 20:00:00 19.1 4 Nordeste 15 Nordeste 0 -- -- 27
2019-05-26 19:00:00 16.9 17 Nordeste 22 Nordeste 0 -- -- 22
2019-05-26 18:00:00 17.4 17 Nordeste 28 Nordeste 0 -- -- 33
2019-05-26 17:00:00 17.7 17 Este 26 Nordeste 0 -- -- 33
2019-05-26 16:00:00 17.1 18 Nordeste 33 Nordeste 0 -- -- 45
2019-05-26 15:00:00 17.5 24 Nordeste 37 Nordeste 0 -- -- 37
2019-05-26 14:00:00 17.8 19 Nordeste 33 Nordeste 0 -- -- 42
2019-05-26 13:00:00 16.5 23 Nordeste 35 Nordeste 0 -- -- 45
2019-05-26 12:00:00 15.7 28 Nordeste 40 Nordeste 0 -- -- 47
2019-05-26 11:00:00 14.8 35 Nordeste 53 Este 0 -- -- 51
2019-05-26 10:00:00 14.2 39 Nordeste 64 Nordeste 0 -- -- 50
2019-05-26 09:00:00 12.5 46 Nordeste 60 Nordeste 0 -- -- 58
2019-05-26 08:00:00 11.3 49 Nordeste 59 Nordeste 0 -- -- 66
2019-05-26 07:00:00 10.7 48 Nordeste 55 Nordeste 0 -- -- 70
2019-05-26 06:00:00 12.7 32 Este 60 Nordeste 0 -- -- 40
2019-05-26 05:00:00 12.4 58 Nordeste 64 Nordeste 0 -- -- 39
2019-05-26 04:00:00 10.7 45 Nordeste 53 Nordeste 0 -- -- 44
2019-05-26 03:00:00 13.5 47 Nordeste 54 Nordeste 0 -- -- 26
2019-05-26 02:00:00 13.7 45 Nordeste 55 Nordeste 0 -- -- 22
2019-05-26 01:00:00 14.3 42 Nordeste 50 Nordeste 0 -- -- 41
2019-05-26 00:00:00 13.3 37 Nordeste 54 Nordeste 0 -- -- 33
2019-05-25 23:00:00 14.7 44 Nordeste 59 Nordeste 0 -- -- 23
2019-05-25 22:00:00 14.1 42 Nordeste 54 Nordeste 0 -- -- 24
2019-05-25 21:00:00 13.9 43 Nordeste 55 Nordeste 0 -- -- 22
2019-05-25 20:00:00 14.9 40 Nordeste 55 Nordeste 0 -- -- 33
2019-05-25 19:00:00 16.1 40 Nordeste 54 Nordeste 0 -- -- 27
2019-05-25 18:00:00 17 33 Nordeste 46 Nordeste 0 -- -- 43
2019-05-25 17:00:00 17 33 Nordeste 46 Nordeste 0 -- -- 49
2019-05-25 16:00:00 16.3 36 Nordeste 49 Este 0 -- -- 51
2019-05-25 15:00:00 16.8 32 Nordeste 48 Nordeste 0 -- -- 56
2019-05-25 14:00:00 16.9 35 Nordeste 47 Nordeste 0 -- -- 52
2019-05-25 13:00:00 17.4 35 Nordeste 46 Nordeste 0 -- -- 51
2019-05-25 12:00:00 16.5 33 Nordeste 49 Nordeste 0 -- -- 53
2019-05-25 11:00:00 15.5 33 Nordeste 45 Nordeste 0 -- -- 54
2019-05-25 10:00:00 14.6 34 Nordeste 42 Nordeste 0 -- -- 51
2019-05-25 09:00:00 14.2 35 Nordeste 40 Nordeste 0 -- -- 49
2019-05-25 08:00:00 14.4 33 Nordeste 40 Nordeste 0 -- -- 46
2019-05-25 07:00:00 13.8 33 Nordeste 42 Nordeste 0 -- -- 48
2019-05-25 06:00:00 13.9 38 Nordeste 45 Nordeste 0 -- -- 45
2019-05-25 05:00:00 14.4 38 Nordeste 47 Nordeste 0 -- -- 38
2019-05-25 04:00:00 15 40 Nordeste 51 Nordeste 0 -- -- 34
2019-05-25 03:00:00 14.3 39 Nordeste 49 Nordeste 0 -- -- 35
2019-05-25 02:00:00 14.8 39 Nordeste 49 Nordeste 0 -- -- 18
2019-05-25 01:00:00 14.6 40 Nordeste 54 Nordeste 0 -- -- 37
2019-05-25 00:00:00 14 45 Nordeste 53 Nordeste 0 -- -- 51
2019-05-24 23:00:00 13.8 45 Nordeste 57 Nordeste 0 -- -- 54
2019-05-24 22:00:00 13.7 46 Nordeste 57 Nordeste 0 -- -- 40
2019-05-24 21:00:00 14.4 43 Nordeste 55 Nordeste 0 -- -- 29
2019-05-24 20:00:00 16.1 42 Nordeste 53 Nordeste 0 -- -- 18
2019-05-24 19:00:00 17.8 39 Nordeste 54 Nordeste 0 -- -- 20
2019-05-24 18:00:00 18.6 37 Nordeste 52 Este 0 -- -- 15
2019-05-24 17:00:00 18.8 38 Nordeste 50 Nordeste 0 -- -- 20
2019-05-24 16:00:00 19.1 30 Nordeste 43 Este 0 -- -- 22
2019-05-24 15:00:00 18.9 29 Nordeste 48 Nordeste 0 -- -- 23
2019-05-24 14:00:00 18.5 32 Nordeste 50 Nordeste 0 -- -- 24
2019-05-24 13:00:00 18.6 31 Nordeste 48 Nordeste 0 -- -- 21
2019-05-24 12:00:00 19.8 32 Nordeste 51 Nordeste 0 -- -- 19
2019-05-24 11:00:00 18 36 Nordeste 53 Nordeste 0 -- -- 27
2019-05-24 10:00:00 16.9 40 Nordeste 53 Nordeste 0 -- -- 27
2019-05-24 09:00:00 16.4 48 Nordeste 59 Nordeste 0 -- -- 27
2019-05-24 08:00:00 16.2 48 Nordeste 60 Nordeste 0 -- -- 25
2019-05-24 07:00:00 15 49 Nordeste 63 Nordeste 0 -- -- 28
2019-05-24 06:00:00 15.5 51 Nordeste 64 Nordeste 0 -- -- 24
2019-05-24 05:00:00 14.4 49 Nordeste 63 Nordeste 0 -- -- 29
2019-05-24 04:00:00 13.9 48 Nordeste 60 Nordeste 0 -- -- 28
2019-05-24 03:00:00 12.8 46 Nordeste 64 Nordeste 0 -- -- 33
2019-05-24 02:00:00 13 51 Nordeste 63 Nordeste 0 -- -- 28
2019-05-24 01:00:00 12.3 48 Nordeste 63 Nordeste 0 -- -- 29
2019-05-24 00:00:00 12 51 Nordeste 62 Nordeste 0 -- -- 38
2019-05-23 23:00:00 12.7 52 Nordeste 63 Nordeste 0 -- -- 40
2019-05-23 22:00:00 13.6 50 Nordeste 63 Nordeste 0 -- -- 37
2019-05-23 21:00:00 13.7 45 Nordeste 55 Nordeste 0 -- -- 31
2019-05-23 20:00:00 9.9 41 Nordeste 51 Nordeste 0 -- -- 100
2019-05-23 19:00:00 9.4 43 Nordeste 53 Nordeste 0 -- -- 100
2019-05-23 18:00:00 9.2 41 Nordeste 57 Nordeste 0 -- -- 100
2019-05-23 17:00:00 9.7 44 Nordeste 56 Nordeste 0 -- -- 100
2019-05-23 16:00:00 9.8 40 Nordeste 54 Nordeste 0 -- -- 100
2019-05-23 15:00:00 10.1 39 Nordeste 51 Nordeste 0 -- -- 100
2019-05-23 14:00:00 10.1 39 Nordeste 54 Este 0 -- -- 100
2019-05-23 13:00:00 10.2 39 Nordeste 54 Nordeste 0 -- -- 100
2019-05-23 12:00:00 9.7 44 Nordeste 59 Nordeste 0 -- -- 100
2019-05-23 11:00:00 9.4 44 Nordeste 58 Nordeste 0 -- -- 100
2019-05-23 10:00:00 8.9 42 Nordeste 60 Nordeste 0 -- -- 100
2019-05-23 09:00:00 8.6 46 Nordeste 67 Nordeste 0 -- -- 100
2019-05-23 08:00:00 8.4 52 Nordeste 68 Nordeste 0 -- -- 100
2019-05-23 07:00:00 8.5 51 Nordeste 69 Nordeste 0.2 -- -- 100
2019-05-23 06:00:00 8.3 51 Nordeste 69 Nordeste 0 -- -- 100
2019-05-23 05:00:00 8.8 48 Nordeste 72 Nordeste 0 -- -- 100
2019-05-23 04:00:00 8 49 Nordeste 65 Nordeste 0.2 -- -- 100
2019-05-23 03:00:00 9.2 46 Nordeste 67 Nordeste 0 -- -- 100
2019-05-23 02:00:00 8.8 53 Nordeste 70 Nordeste 0.2 -- -- 100
2019-05-23 01:00:00 9.3 48 Nordeste 71 Nordeste 0 -- -- 100
2019-05-23 00:00:00 8.6 48 Nordeste 64 Nordeste 0 -- -- 100
2019-05-22 23:00:00 8.5 49 Nordeste 66 Nordeste 0 -- -- 100
2019-05-22 22:00:00 8.7 51 Nordeste 67 Nordeste 0 -- -- 100
2019-05-22 21:00:00 8.7 51 Nordeste 64 Nordeste 0 -- -- 100
2019-05-22 20:00:00 9.1 49 Nordeste 62 Nordeste 0 -- -- 99
2019-05-22 19:00:00 9.6 43 Nordeste 57 Nordeste 0 -- -- 93
2019-05-22 18:00:00 11.4 32 Nordeste 52 Nordeste 0 -- -- 90
2019-05-22 17:00:00 10.7 30 Nordeste 46 Nordeste 0 -- -- 100
2019-05-22 16:00:00 10.6 27 Nordeste 46 Nordeste 0 -- -- 100
2019-05-22 15:00:00 9.7 37 Nordeste 46 Este 0 -- -- 100
2019-05-22 14:00:00 9.6 35 Nordeste 55 Este 0 -- -- 100
2019-05-22 13:00:00 9.4 41 Nordeste 55 Nordeste 0 -- -- 100
2019-05-22 12:00:00 10.7 43 Nordeste 57 Nordeste 0 -- -- 100
2019-05-22 11:00:00 9.9 41 Nordeste 56 Nordeste 0 -- -- 100
2019-05-22 10:00:00 9.2 37 Nordeste 47 Nordeste 0 -- -- 100
2019-05-22 09:00:00 8.9 40 Nordeste 50 Nordeste 0 -- -- 100
2019-05-22 08:00:00 8.2 32 Nordeste 41 Nordeste 0.2 -- -- 100
2019-05-22 07:00:00 8.5 34 Nordeste 46 Nordeste 0 -- -- 100
2019-05-22 06:00:00 8.4 37 Nordeste 51 Nordeste 0 -- -- 100
2019-05-22 05:00:00 8.1 37 Nordeste 50 Nordeste 0 -- -- 100
2019-05-22 04:00:00 8.2 43 Nordeste 56 Nordeste 0 -- -- 100
2019-05-22 03:00:00 8.3 43 Nordeste 55 Nordeste 0.2 -- -- 100
2019-05-22 02:00:00 7.9 46 Nordeste 60 Este 0 -- -- 100
2019-05-22 01:00:00 8.3 42 Nordeste 55 Nordeste 0 -- -- 100
2019-05-22 00:00:00 8.5 44 Nordeste 60 Nordeste 0 -- -- 100
2019-05-21 23:00:00 8.4 42 Nordeste 59 Nordeste 0 -- -- 100
2019-05-21 22:00:00 8.5 45 Nordeste 57 Nordeste 0 -- -- 100
2019-05-21 21:00:00 8.3 40 Nordeste 54 Nordeste 0 -- -- 100
2019-05-21 20:00:00 8.6 40 Nordeste 51 Nordeste 0 -- -- 96
2019-05-21 19:00:00 11.1 42 Nordeste 48 Nordeste 0 -- -- 69
2019-05-21 18:00:00 11.8 37 Nordeste 46 Nordeste 0 -- -- 74
2019-05-21 17:00:00 15.2 6 Este 36 Nordeste 0 -- -- 63
2019-05-21 16:00:00 13.3 24 Nordeste 37 Este 0 -- -- 68
2019-05-21 15:00:00 12.1 24 Nordeste 33 Nordeste 0 -- -- 91
2019-05-21 14:00:00 10.8 9 Nordeste 35 Nordeste 0 -- -- 100
2019-05-21 13:00:00 11.1 14 Nordeste 34 Nordeste 0 -- -- 100
2019-05-21 12:00:00 9.4 27 Nordeste 37 Nordeste 0 -- -- 100
2019-05-21 11:00:00 9.3 30 Nordeste 37 Nordeste 0 -- -- 100
2019-05-21 10:00:00 9.1 30 Nordeste 42 Nordeste 0 -- -- 100
2019-05-21 09:00:00 8 33 Nordeste 45 Nordeste 0 -- -- 100
2019-05-21 08:00:00 7.3 38 Nordeste 44 Nordeste 0 -- -- 100
2019-05-21 07:00:00 6.7 41 Nordeste 48 Nordeste 0 -- -- 100
2019-05-21 06:00:00 7.1 40 Nordeste 49 Nordeste 0 -- -- 100
2019-05-21 05:00:00 11.3 45 Nordeste 52 Nordeste 0 -- -- 38
2019-05-21 04:00:00 11.5 46 Nordeste 54 Nordeste 0 -- -- 30
2019-05-21 03:00:00 11.1 48 Nordeste 51 Nordeste 0 -- -- 36
2019-05-21 02:00:00 6.7 39 Nordeste 51 Nordeste 0 -- -- 100
2019-05-21 01:00:00 7.1 40 Nordeste 53 Nordeste 0 -- -- 100
2019-05-21 00:00:00 7.8 45 Nordeste 53 Nordeste 0 -- -- 100
2019-05-20 23:00:00 8.3 42 Nordeste 50 Nordeste 0 -- -- 100
2019-05-20 22:00:00 7.9 42 Nordeste 51 Nordeste 0 -- -- 100
2019-05-20 21:00:00 7.8 38 Nordeste 48 Nordeste 0 -- -- 100
2019-05-20 20:00:00 8.7 39 Nordeste 48 Nordeste 0 -- -- 100
2019-05-20 19:00:00 8.7 30 Nordeste 41 Nordeste 0 -- -- 100
2019-05-20 18:00:00 9.3 32 Nordeste 42 Nordeste 0 -- -- 100
2019-05-20 17:00:00 10.5 21 Nordeste 34 Nordeste 0 -- -- 100
2019-05-20 16:00:00 10.9 21 Nordeste 34 Nordeste 0 -- -- 100
2019-05-20 15:00:00 9.7 23 Nordeste 33 Nordeste 0 -- -- 100
2019-05-20 14:00:00 9.8 31 Nordeste 44 Nordeste 0 -- -- 100
2019-05-20 13:00:00 9.4 35 Nordeste 53 Nordeste 0 -- -- 100
2019-05-20 12:00:00 8.8 43 Nordeste 58 Nordeste 0 -- -- 100
2019-05-20 11:00:00 8.6 36 Nordeste 50 Nordeste 0 -- -- 100
2019-05-20 10:00:00 7.8 38 Nordeste 57 Nordeste 0 -- -- 100
2019-05-20 09:00:00 7.2 49 Nordeste 60 Nordeste 0.2 -- -- 100
2019-05-20 08:00:00 7.1 41 Nordeste 52 Nordeste 0 -- -- 100
2019-05-20 07:00:00 7 41 Nordeste 50 Nordeste 0 -- -- 100
2019-05-20 06:00:00 7.5 41 Nordeste 53 Nordeste 0 -- -- 100
2019-05-20 05:00:00 7.7 45 Nordeste 58 Nordeste 0.2 -- -- 100
2019-05-20 04:00:00 7.5 41 Nordeste 54 Nordeste 0 -- -- 100
2019-05-20 03:00:00 7.5 41 Nordeste 52 Nordeste 0 -- -- 100
2019-05-20 02:00:00 7.8 45 Nordeste 57 Nordeste 0 -- -- 100
2019-05-20 01:00:00 7.7 45 Nordeste 57 Nordeste 0 -- -- 100
2019-05-20 00:00:00 8 45 Nordeste 57 Nordeste 0 -- -- 100
2019-05-19 23:00:00 7.6 46 Nordeste 57 Nordeste 0 -- -- 100
2019-05-19 22:00:00 8.4 38 Nordeste 57 Nordeste 0 -- -- 100
2019-05-19 21:00:00 9.3 45 Nordeste 55 Nordeste 0 -- -- 84
2019-05-19 20:00:00 10.2 37 Nordeste 49 Nordeste 0 -- -- 82
2019-05-19 19:00:00 8.8 39 Nordeste 49 Nordeste 0 -- -- 100
2019-05-19 18:00:00 9.2 40 Nordeste 50 Nordeste 0 -- -- 100
2019-05-19 17:00:00 9.5 40 Nordeste 50 Nordeste 0 -- -- 100
2019-05-19 16:00:00 10.2 36 Nordeste 50 Nordeste 0 -- -- 100
2019-05-19 15:00:00 9.9 34 Nordeste 53 Nordeste 0 -- -- 100
2019-05-19 14:00:00 10.7 33 Nordeste 40 Nordeste 0 -- -- 94
2019-05-19 13:00:00 16.1 24 Nordeste 33 Nordeste 0 -- -- 53
2019-05-19 12:00:00 17.1 21 Norte 34 Nordeste 0 -- -- 29
2019-05-19 11:00:00 9.8 26 Nordeste 37 Nordeste 0 -- -- 100
2019-05-19 10:00:00 14 30 Nordeste 39 Nordeste 0 -- -- 38
2019-05-19 09:00:00 13.3 31 Norte 37 Nordeste 0 -- -- 27
2019-05-19 08:00:00 17.1 10 Sudoeste 18 Sudeste 0 -- -- 22
2019-05-19 07:00:00 15.8 12 Este 33 Nordeste 0 -- -- 21
2019-05-19 06:00:00 13.8 27 Nordeste 32 Nordeste 0 -- -- 10
2019-05-19 05:00:00 15 20 Este 26 Este 0 -- -- 21
2019-05-19 04:00:00 13.5 19 Nordeste 32 Nordeste 0 -- -- 19
2019-05-19 03:00:00 14.4 22 Este 30 Este 0 -- -- 29
2019-05-19 02:00:00 14.2 27 Nordeste 38 Nordeste 0 -- -- 35
2019-05-19 01:00:00 7.4 34 Nordeste 44 Nordeste 0 -- -- 100
2019-05-19 00:00:00 7.6 36 Nordeste 45 Nordeste 0 -- -- 100
2019-05-18 23:00:00 12.1 39 Nordeste 45 Nordeste 0 -- -- 49
2019-05-18 22:00:00 8.5 39 Nordeste 49 Nordeste 0 -- -- 100
2019-05-18 21:00:00 8.2 40 Nordeste 58 Este 0 -- -- 100
2019-05-18 20:00:00 13.1 49 Nordeste 57 Nordeste 0 -- -- 37
2019-05-18 19:00:00 11.5 42 Nordeste 57 Nordeste 0 -- -- 62
2019-05-18 18:00:00 14.8 37 Nordeste 46 Nordeste 0 -- -- 53
2019-05-18 17:00:00 18.6 27 Nordeste 36 Nordeste 0 -- -- 34
2019-05-18 16:00:00 14.2 17 Nordeste 33 Nordeste 0 -- -- 80
2019-05-18 15:00:00 11.6 28 Este 40 Este 0 -- -- 92
2019-05-18 14:00:00 13.9 22 Este 35 Este 0 -- -- 79
2019-05-18 13:00:00 12.3 27 Este 43 Este 0 -- -- 87
2019-05-18 12:00:00 13.5 31 Este 47 Este 0 -- -- 67
2019-05-18 11:00:00 10 33 Este 49 Nordeste 0 -- -- 100
2019-05-18 10:00:00 10.6 32 Este 42 Nordeste 0 -- -- 95
2019-05-18 09:00:00 9.8 29 Este 42 Nordeste 0 -- -- 97
2019-05-18 08:00:00 10.3 29 Este 40 Este 0 -- -- 83
2019-05-18 07:00:00 11 31 Este 45 Este 0 -- -- 69
2019-05-18 06:00:00 14.7 32 Este 43 Este 0 -- -- 40
2019-05-18 05:00:00 11.3 31 Este 44 Este 0 -- -- 66
2019-05-18 04:00:00 12 32 Este 42 Este 0 -- -- 61
2019-05-18 03:00:00 11.4 33 Este 45 Este 0 -- -- 67
2019-05-18 02:00:00 10.1 34 Este 45 Este 0 -- -- 90
2019-05-18 01:00:00 12.5 33 Este 46 Este 0 -- -- 64
2019-05-18 00:00:00 12.9 32 Este 47 Este 0 -- -- 66
2019-05-17 23:00:00 13.7 33 Este 49 Este 0 -- -- 51
2019-05-17 22:00:00 14.2 33 Este 46 Sudeste 0 -- -- 43
2019-05-17 21:00:00 14.6 35 Este 44 Este 0 -- -- 44
2019-05-17 20:00:00 15.6 32 Este 46 Este 0 -- -- 40
2019-05-17 19:00:00 16.4 33 Este 45 Este 0 -- -- 42
2019-05-17 18:00:00 16.9 32 Este 45 Este 0 -- -- 40
2019-05-17 17:00:00 17.7 30 Este 44 Este 0 -- -- 43
2019-05-17 16:00:00 17.8 33 Este 50 Este 0 -- -- 47
2019-05-17 15:00:00 18.5 33 Este 52 Este 0 -- -- 38
2019-05-17 14:00:00 18.8 37 Este 57 Este 0 -- -- 39
2019-05-17 13:00:00 18.3 43 Sudeste 55 Sudeste 0 -- -- 40
2019-05-17 12:00:00 18.1 38 Este 56 Este 0 -- -- 36
2019-05-17 11:00:00 17.1 34 Este 50 Este 0 -- -- 38
2019-05-17 10:00:00 16.1 38 Este 54 Sudeste 0 -- -- 44
2019-05-17 09:00:00 15.5 35 Este 53 Este 0 -- -- 50
2019-05-17 08:00:00 15.4 33 Este 50 Este 0 -- -- 41
2019-05-17 07:00:00 14.8 34 Este 49 Sudeste 0 -- -- 35
2019-05-17 06:00:00 15.9 32 Sudeste 46 Este 0 -- -- 27
2019-05-17 05:00:00 15.9 35 Este 44 Sudeste 0 -- -- 26
2019-05-17 04:00:00 15.8 31 Este 40 Este 0 -- -- 24
2019-05-17 03:00:00 16 30 Sudeste 37 Sudeste 0 -- -- 22
2019-05-17 02:00:00 16.5 27 Sudeste 33 Este 0 -- -- 17
2019-05-17 01:00:00 16.7 24 Este 31 Este 0 -- -- 16
2019-05-17 00:00:00 16.4 22 Este 31 Este 0 -- -- 16